sat.trackr.live / text

‹ back to catalog

STARLINK-37269

NORAD 68621 · 2026-073V

PAYLOAD ACTIVE UNKNOWN

§ Identity

Operator
Country
US
Launch date
2026-04-07
Launch site
AFWTR
Launch vehicle
Mass (kg)
RCS (m²)

Purposes: comms

External: N2YO · Heavens-Above · Gunter

§ Orbital elements

Epoch: 2026-05-25T04:00:03.998880Z

Period
92.76 min
Inclination
97.2853°
Eccentricity
0.0001644
Mean motion
15.52321910 rev/d
Perigee alt
408.8 km
Apogee alt
411.1 km
Semi-major
6,788.1 km
B*
-1.6889e-2
RAAN
344.5821°
Arg perigee
76.3664°
Mean anomaly
46.0970°
Rev number
588

§ Raw data

STARLINK-372691 68621U 26073V   26145.16671295 -.00929852  00000+0 -16889-1 0  99952 68621  97.2853 344.5821 0001644  76.3664  46.0970 15.52321910  5889

JSON: /api/v1/satellites/68621 · /tle

For live sub-satellite position, see the globe view (requires WebGL).

§ Visibility from observer

Set your observer location to see the next 7 days of passes ≥ 10°. The values pass through the URL so the page stays shareable.

No JS? Fill the form by hand. The geolocation button needs JavaScript.